Regional Weather Roundup
Issued by NWS Albany, NY

Home | Current Version | Previous Version | Text Only | Print | Product List | Glossary On
Versions: 1 2 3 4 5 6 7 8 9 10 11 12 13 14 15 16 17 18 19 20 21 22 23 24 25 26 27 28 29 30 31 32 33 34 35 36 37 38 39 40 41 42 43 44 45 46 47 48 49 50
000
ASUS41 KALY 180710
RWRALY

NEW YORK STATE HOURLY WEATHER ROUNDUP
NATIONAL WEATHER SERVICE ALBANY NY
200 AM EST MON DEC 18 2017

NOTE: "FAIR" INDICATES FEW OR NO CLOUDS BELOW 12,000 FEET WITH NO
SIGNIFICANT WEATHER AND/OR NO OBSTRUCTIONS TO VISIBILITY.

NYZ032-033-038>043-046>054-057>066-NYZ062>081-082-084-180800-
EAST


CITY           SKY/WX    TMP DP  RH WIND       PRES   REMARKS
ALBANY         FLURRIES  18  10  71 N5        30.19F WCI  11
GLENS FALLS    CLOUDY    11   9  92 CALM      30.20F
POUGHKEEPSIE   CLOUDY    27  16  63 CALM      30.19F
NEWBURGH       CLOUDY    27  21  80 CALM      30.17F
MONTGOMERY     CLOUDY    27  18  69 CALM      30.16F
WHITE PLAINS   FLURRIES  31  18  58 CALM      30.17S
ISLIP          CLOUDY    33  22  63 NE6       30.19S WCI  28
NEW YORK CITY  CLOUDY    35  23  61 E7        30.19S WCI  29
CENTRAL PARK   CLOUDY    35  25  66 NE6       30.21S WCI  30
$$

NYZ005>009-017-018-044>046-055-056-180800-
CENTRAL


CITY           SKY/WX    TMP DP  RH WIND       PRES   REMARKS
FULTON         CLOUDY    23  17  78 VRB3      30.07F
SYRACUSE       FLURRIES  21  18  88 E9        30.08F WCI  11
ROME           LGT SNOW  20  18  92 E9        30.13F FOG     WCI   9
ELMIRA         CLOUDY    28  22  78 CALM      30.07S
BINGHAMTON     CLOUDY    27  22  81 S3        30.05R
MONTICELLO     CLOUDY    24  20  84 CALM      30.12S
$$

NYZ026>034-041>043-087-180800-
NORTH


CITY           SKY/WX    TMP DP  RH WIND       PRES   REMARKS
WATERTOWN      LGT SNOW  15  10  80 NE7       30.09F WCI   5
FORT DRUM      NOT AVBL
OGDENSBURG     FAIR      10   6  87 CALM      30.13F
MASSENA        CLOUDY     8   4  83 E3        30.17F
SARANAC LAKE   CLOUDY     3   1  91 CALM      30.03F
PLATTSBURGH    CLOUDY    13   7  77 W3        30.19F
$$

NYZ001>004-010>016-019>021-085-180800-
WEST


CITY           SKY/WX    TMP DP  RH WIND       PRES   REMARKS
NIAGARA FALLS  CLOUDY    26  18  71 CALM      30.02F
BUFFALO        CLOUDY    26  23  88 S5        30.01F WCI  20
DUNKIRK        CLOUDY    36  32  85 S9        30.03F WCI  29
JAMESTOWN      CLOUDY    33  32  96 SW7       30.01S WCI  27
WELLSVILLE     CLOUDY    37  30  75 W8G16     30.01F WCI  31
ROCHESTER      CLOUDY    25  21  85 CALM      30.04F
PENN YAN       CLOUDY    30  24  78 SW8       30.03F WCI  22
$$

             KEY
       WCI = WIND CHILL INDEX
       VSB = VISIBILITY
       HX  = HEAT INDEX
$$



USA.gov is the U.S. government's official web portal to all federal, state and local government web resources and services.